TimeEST,TemperatureF,Dew PointF,Humidity,Sea Level PressureIn,VisibilityMPH,Wind Direction,Wind SpeedMPH,Gust SpeedMPH,PrecipitationIn,Events,Conditions,WindDirDegrees,DateUTC
12:00 AM,-39.1,-46.5,66,30.10,-9999.0,Calm,Calm,-,N/A,,Unknown,0,2014-03-04 05:00:00
1:00 AM,-42,-50,46,30.12,,SSE,1.2,,,,,160,2014-03-04 06:00:00
1:00 AM,-42.3,-49.5,67,30.12,-9999.0,SSE,1.2,-,N/A,,Unknown,160,2014-03-04 06:00:00
2:00 AM,-45.0,-52.6,65,30.12,-9999.0,Calm,Calm,-,N/A,,Unknown,0,2014-03-04 07:00:00
3:00 AM,-47.6,-55.3,64,30.14,-9999.0,Calm,Calm,-,N/A,,Unknown,0,2014-03-04 08:00:00
4:00 AM,-52.1,-60.7,60,30.16,-9999.0,SSE,1.2,-,N/A,,Unknown,150,2014-03-04 09:00:00
5:00 AM,-53.3,-62.0,60,30.19,-9999.0,Calm,Calm,-,N/A,,Unknown,0,2014-03-04 10:00:00
6:00 AM,-55.7,-64.7,58,30.22,-9999.0,Calm,Calm,-,N/A,,Unknown,0,2014-03-04 11:00:00
7:00 AM,-56,-65,35,30.25,,Calm,Calm,,,,,,2014-03-04 12:00:00
7:00 AM,-55.8,-64.8,58,30.25,-9999.0,Calm,Calm,-,N/A,,Unknown,0,2014-03-04 12:00:00
8:00 AM,-48.5,-57.5,59,30.27,-9999.0,WNW,1.2,-,N/A,,Unknown,300,2014-03-04 13:00:00
9:00 AM,-9999,-9999,N/A,30.25,-9999.0,WNW,3.5,-,N/A,,Unknown,300,2014-03-04 14:00:00
10:00 AM,-9999,-9999,N/A,-9999,-9999.0,West,3.5,-,N/A,,Unknown,270,2014-03-04 15:00:00
11:00 AM,-9999,-9999,N/A,30.25,-9999.0,Calm,Calm,-,N/A,,Unknown,0,2014-03-04 16:00:00
12:00 PM,-12.8,-28.7,45,30.28,-9999.0,SW,3.5,-,N/A,,Unknown,230,2014-03-04 17:00:00
1:00 PM,-8,-27,21,30.28,,WNW,5.8,,,,,290,2014-03-04 18:00:00
1:00 PM,-8.1,-27.0,39,30.28,-9999.0,WNW,5.8,-,N/A,,Unknown,290,2014-03-04 18:00:00
2:00 PM,-6.7,-24.3,42,30.29,-9999.0,West,5.8,-,N/A,,Unknown,280,2014-03-04 19:00:00
3:00 PM,-8.1,-24.3,45,30.31,-9999.0,WNW,11.5,-,N/A,,Unknown,290,2014-03-04 20:00:00
4:00 PM,-9.9,-25.1,47,30.34,-9999.0,NW,13.8,-,N/A,,Unknown,310,2014-03-04 21:00:00
5:00 PM,-13.0,-27.6,48,30.36,-9999.0,NNW,10.4,-,N/A,,Unknown,330,2014-03-04 22:00:00
6:00 PM,-20.2,-32.1,54,30.40,-9999.0,NNW,6.9,-,N/A,,Unknown,340,2014-03-04 23:00:00
7:00 PM,-25,-34,43,30.43,,North,1.2,,,,,350,2014-03-05 00:00:00
7:00 PM,-24.9,-34.2,61,30.43,-9999.0,North,1.2,-,N/A,,Unknown,350,2014-03-05 00:00:00
8:00 PM,-31.9,-40.4,63,30.43,-9999.0,WNW,1.2,-,N/A,,Unknown,300,2014-03-05 01:00:00
9:00 PM,-36.9,-45.8,62,30.43,-9999.0,SE,1.2,-,N/A,,Unknown,140,2014-03-05 02:00:00
10:00 PM,-36.0,-43.8,66,30.41,-9999.0,Calm,Calm,-,N/A,,Unknown,0,2014-03-05 03:00:00
11:00 PM,-41.4,-49.5,63,30.40,-9999.0,Calm,Calm,-,N/A,,Unknown,0,2014-03-05 04:00:00